Ketchikan, AK

9:31 PM AKDT on April 29, 2017 (GMT -0800)
Ketchikan International

Weather History for PAKT - November, 2012

Change the Weather History Date:

Sunday, November 4, 2012

  Actual Average Record
Temperature  
Mean Temperature 48 °F -  
Max Temperature 53 °F 48 °F 64 °F (1970)
Min Temperature 43 °F 37 °F 19 °F (1973)
Degree Days  
Heating Degree Days 17    
Moisture  
Dew Point 43 °F    
Average Humidity 86    
Maximum Humidity 96    
Minimum Humidity 74    
Precipitation  
Precipitation 3.17 in - - ()
Sea Level Pressure  
Sea Level Pressure 29.43 in    
Wind  
Wind Speed 17 mph (SE)    
Max Wind Speed 38 mph    
Max Gust Speed 60 mph    
Visibility 7 miles    
Events Rain    
Averages and records for this station are not official NWS values.
T = Trace of Precipitation, MM = Missing Value Source: NWS Daily Summary

Daily Weather History Graph

Daily Weather History Graph

Search for Another Location

Airport or City:

Trip Planner

Search our weather history database for the weather conditions in past years. The results will help you decide how hot, cold, wet, or windy it might be!

Date:

Astronomy

Nov. 04, 2012 Rise Set
Actual Time 6:59 AM AKST 4:00 PM AKST
Civil Twilight 6:19 AM AKST 4:40 PM AKST
Nautical Twilight 5:36 AM AKST 5:23 PM AKST
Astronomical Twilight 4:53 AM AKST 6:06 PM AKST
Moon 8:37 PM AKST (11/4) 11:58 AM AKST (11/4)
Length of Visible Light 10h 20m
Length of Day
9h 01m
Waning Gibbous, 70% of the Moon is Illuminated
Nov 4
Waning Gibbous
Nov 6
Last Quarter
Nov 13
New
Nov 20
First Quarter
Nov 28
Full

Hourly Weather History & Observations

Time (AKST) Temp. Windchill Dew Point Humidity Pressure Visibility Wind Dir Wind Speed Gust Speed Precip Events Conditions
12:53 AM 46.0 °F 41.0 °F 42.1 °F 86% 29.79 in 10.0 mi SSE 10.4 mph 18.4 mph 0.00 in Rain Light Rain
1:53 AM 46.0 °F 40.2 °F 41.0 °F 83% 29.76 in 7.0 mi SSE 12.7 mph 21.9 mph 0.00 in Rain Light Rain
1:53 AM 46.9 °F - 41.0 °F 80% 29.71 in 10.0 mi SSE 12.7 mph - 0.01 in   Overcast
2:53 AM 46.9 °F - 39.9 °F 77% 29.67 in 10.0 mi SE 17.3 mph 24.2 mph 0.00 in Rain Light Rain
3:34 AM 44.6 °F 39.7 °F 42.8 °F 93% 29.65 in 9.0 mi SSE 9.2 mph 18.4 mph 0.04 in Rain Light Rain
3:53 AM 45.0 °F 37.4 °F 43.0 °F 93% 29.65 in 10.0 mi SE 18.4 mph 21.9 mph 0.05 in Rain Light Rain
4:53 AM 45.0 °F 38.2 °F 42.1 °F 90% 29.57 in 7.0 mi SE 15.0 mph 28.8 mph 0.13 in Rain Rain
5:53 AM 43.0 °F 37.2 °F 39.9 °F 89% 29.49 in 7.0 mi SE 10.4 mph - 0.16 in Rain Rain
6:09 AM 44.6 °F 38.8 °F 39.2 °F 81% 29.46 in 8.0 mi SE 11.5 mph 18.4 mph N/A Rain Rain
6:53 AM 44.6 °F 38.1 °F 41.0 °F 87% 29.38 in 6.0 mi SSE 13.8 mph 23.0 mph N/A Rain Rain
7:53 AM 46.9 °F - 45.0 °F 93% 29.29 in 6.0 mi SSE 16.1 mph 28.8 mph 0.09 in Rain Light Rain
8:53 AM 46.9 °F - 44.1 °F 90% 29.20 in 6.0 mi SSE 18.4 mph 26.5 mph 0.03 in Rain Light Rain
9:53 AM 50.0 °F - 46.9 °F 89% 29.10 in 7.0 mi SE 29.9 mph 40.3 mph 0.03 in Rain Light Rain
10:53 AM 51.1 °F - 50.0 °F 96% 29.08 in 6.0 mi SSE 27.6 mph 44.9 mph 0.12 in Rain Light Rain
11:53 AM 53.1 °F - 45.0 °F 74% 29.11 in 9.0 mi SSE 25.3 mph 40.3 mph 0.01 in   Overcast
12:53 PM 48.9 °F - 45.0 °F 86% 29.11 in 5.0 mi SE 35.7 mph 55.2 mph 0.10 in Rain Light Rain
1:53 PM 48.0 °F - 46.0 °F 93% 29.12 in 4.0 mi SE 38.0 mph 59.8 mph 0.34 in Rain Light Rain
2:53 PM 46.9 °F - - N/A% 29.15 in 4.0 mi SE 29.9 mph 50.6 mph 0.22 in Rain Light Rain
3:53 PM 46.9 °F - 45.0 °F 93% 29.19 in 3.0 mi SE 28.8 mph 42.6 mph 0.35 in Rain Rain
4:53 PM 46.9 °F - 43.0 °F 86% 29.27 in 3.0 mi SE 24.2 mph 44.9 mph 0.42 in Rain Rain
5:53 PM 46.9 °F - 43.0 °F 86% 29.35 in 4.0 mi SE 27.6 mph 39.1 mph 0.33 in Rain Rain
6:53 PM 46.9 °F - 43.0 °F 86% 29.41 in 5.0 mi SE 17.3 mph 34.5 mph 0.22 in Rain Rain
7:53 PM 46.9 °F - 42.1 °F 83% 29.49 in 6.0 mi SE 18.4 mph 31.1 mph 0.18 in Rain Rain
8:53 PM 46.9 °F - 41.0 °F 80% 29.57 in 9.0 mi SSE 17.3 mph 25.3 mph 0.14 in Rain Light Rain
9:53 PM 46.9 °F - 41.0 °F 80% 29.65 in 7.0 mi SSE 12.7 mph 26.5 mph 0.10 in Rain Light Rain
10:00 PM 46.4 °F 39.8 °F 41.0 °F 81% 29.65 in 6.0 mi SSE 16.1 mph 31.1 mph 0.02 in Rain Rain
10:53 PM 46.9 °F - 41.0 °F 80% 29.71 in 9.0 mi SSE 15.0 mph 26.5 mph 0.14 in Rain Light Rain